Location: Colonia Mina de C?rbuni
(46.1667°N, 22.7167°E)
Time: 08:25:05
(UTC+00:00)

Vanguard 2 - Pass Details

Date: 18 April 2024
Orbit: 552 x 2914 km, 32.9° (Epoch: 27 May)

Event Time Altitude Azimuth Distance (km) Brightness Sun altitude
Rises 07:11:54 0° 275° (W) 6,629 11.8 35.6°
Reaches altitude 10° 07:18:11 10° 262° (W) 5,358 11.5 36.6°
Maximum altitude 07:27:46 20° 223° (SW) 3,949 11.2 38.1°
Drops below altitude 10° 07:35:20 10° 181° (S) 4,077 11.7 39.3°
Sets 07:39:15 0° 165° (SSE) 4,668 12.0 39.9°
